Temp
11 11 10 10 10 9 10 10 10 9 9 9 8 8 8 8 8 7 8 8 8 8 8 8 8 8 8 9 9 9 9 9 9 9 9 9 9 9 9 9 9 9 9 10 10 10 11 11 12 12 12 13
10 10 10 10 9 9 9 9 9 9 8 8 8 7 7 7 7 7 8 8 8 8 8 8 8 8 8 8 8 9 9 8 8 8 8 8 8 8 9 9 9 9 9 10 10 10 10 11 11 11 12 12
9 9 9 9 9 9 9 9 8 8 7 7 7 6 7 7 7 7 7 8 8 8 8 8 7 8 8 7 8 8 8 8 8 8 8 8 8 8 9 9 9 9 9 9 10 10 10 10 10 11 11 11
9 9 9 9 9 9 9 8 8 7 7 7 7 6 6 7 7 7 7 7 7 7 7 7 7 7 7 7 7 7 7 7 7 7 7 7 7 8 8 9 9 9 9 9 9 9 9 9 10 10 10 10
10 10 9 9 9 9 9 8 8 8 8 8 7 7 6 6 7 7 7 7 7 7 7 7 7 7 7 7 7 7 7 7 6 6 6 6 7 8 8 8 9 9 9 8 9 9 8 9 9 9 9 9
9 9 9 9 9 9 9 8 8 8 8 7 7 7 7 7 6 6 6 6 7 7 7 7 7 7 7 7 7 7 7 7 6 6 6 7 7 7 8 8 8 9 9 8 8 8 8 8 8 8 8 8
8 8 8 8 8 8 8 8 8 8 8 7 7 7 7 7 6 6 6 6 6 6 7 7 7 7 7 7 7 7 7 7 6 6 7 7 7 7 7 8 7 7 8 7 7 7 7 8 7 7 8 8
8 8 8 8 8 8 8 8 8 8 8 8 8 7 7 7 6 6 6 6 6 6 6 6 6 6 7 6 6 6 6 6 6 6 6 6 6 7 7 7 7 6 6 6 7 7 7 7 7 7 7 7
7 7 7 8 8 8 8 8 8 8 8 8 8 8 7 7 7 6 6 6 6 6 6 6 5 5 5 5 5 5 5 5 5 5 5 5 6 6 6 6 6 6 6 6 6 6 6 6 6 6 6 6
6 6 7 8 8 8 8 8 8 8 8 8 8 8 8 8 7 7 7 6 6 5 5 5 5 4 4 4 5 5 5 4 4 4 4 4 5 5 5 5 5 5 5 5 5 5 5 6 6 6 6 6
6 6 7 7 8 8 8 8 8 8 8 8 8 8 8 8 8 7 7 6 6 5 5 5 4 4 3 3 4 4 4 4 4 4 4 4 4 4 4 4 4 4 5 4 5 5 5 5 5 5 5 5
6 6 7 7 8 8 7 7 8 7 7 8 8 8 8 7 7 7 7 6 6 5 5 4 4 4 2 2 3 3 3 4 4 4 3 3 3 4 4 4 4 4 4 4 4 4 4 4 4 4 4 4
6 6 7 7 7 7 7 7 7 7 7 7 7 7 7 7 6 6 6 6 5 5 5 4 4 4 3 2 2 2 3 3 3 3 3 3 3 3 3 3 4 3 3 3 3 3 3 4 4 4 4 3
6 6 6 6 6 6 6 6 6 6 7 7 7 7 6 6 6 5 5 5 5 4 4 4 4 4 3 2 1 1 2 2 2 3 3 3 3 3 3 3 3 3 3 3 2 2 2 3 3 3 3 3
5 5 6 5 5 6 6 6 6 6 7 7 6 6 6 6 5 5 5 5 4 4 4 4 3 3 3 2 1 0 1 1 2 2 2 2 2 2 2 2 2 2 2 2 2 2 2 2 2 2 2 2
5 5 5 5 5 6 5 6 6 6 6 6 6 6 5 5 5 5 5 4 4 4 4 3 3 3 2 2 0 -0 -0 0 1 1 1 1 1 1 2 2 2 2 2 1 1 1 1 1 2 1 1 1
4 4 5 5 5 5 5 5 5 6 6 5 5 5 5 5 5 5 5 4 4 4 3 3 3 2 2 1 1 -0 -0 -0 0 0 0 1 1 1 1 2 2 2 2 1 1 1 1 1 1 1 1 1
4 4 4 4 4 4 4 5 5 5 5 5 5 5 5 5 5 5 4 4 4 3 3 3 3 2 2 1 1 0 -0 -1 -0 -0 -0 -1 -1 -0 0 1 1 1 1 1 1 1 1 1 1 1 1 0
4 4 3 4 4 4 4 4 5 5 5 5 5 5 5 5 5 4 4 4 4 3 3 3 3 2 1 1 1 0 -0 -1 -1 -1 -1 -1 -2 -1 -0 0 1 1 0 0 1 1 1 1 1 1 0 0
3 3 3 3 3 4 4 4 4 5 5 5 5 5 4 4 4 4 4 3 3 3 3 3 2 2 1 1 1 0 0 -0 -0 -1 -1 -1 -2 -2 -1 -0 -0 -0 -0 -0 0 0 0 0 0 0 -0 -0
3 3 3 3 3 3 4 4 4 4 4 4 4 4 4 4 3 3 3 3 3 3 3 2 2 1 1 1 0 0 0 -0 -1 -1 -2 -2 -2 -2 -2 -1 -1 -0 -1 -1 -0 -0 -0 -0 -0 -0 -1 -1
3 3 3 3 3 4 4 4 4 4 4 4 4 4 4 3 3 3 3 3 3 2 2 2 2 1 1 1 0 -0 -0 -0 -1 -1 -2 -2 -2 -3 -2 -2 -1 -0 -1 -1 -1 -0 -0 -1 -1 -1 -1 -1
3 3 3 4 4 4 4 4 4 4 4 4 4 4 3 3 3 3 3 3 3 2 2 2 2 1 1 1 0 -0 -0 -0 -1 -1 -1 -2 -3 -3 -2 -2 -2 -1 -1 -1 -1 -1 -1 -1 -1 -1 -1 -1
3 3 4 4 4 4 5 5 5 4 3 3 3 3 3 3 3 3 2 2 2 2 2 2 2 1 1 0 -0 -1 -1 -1 -1 -1 -1 -2 -3 -3 -2 -2 -2 -1 -1 -1 -1 -1 -1 -1 -1 -2 -2 -2
3 3 4 4 4 4 5 5 5 5 4 3 3 2 3 3 3 2 2 2 2 2 2 2 2 1 1 0 -1 -1 -1 -2 -2 -2 -2 -2 -3 -4 -3 -3 -3 -2 -1 -1 -1 -1 -1 -1 -2 -2 -2 -2
3 3 4 4 4 4 4 4 5 5 4 3 2 2 3 3 2 2 2 2 2 2 2 1 1 1 0 -0 -1 -1 -2 -2 -2 -2 -2 -2 -2 -3 -4 -4 -4 -3 -2 -2 -3 -2 -1 -1 -2 -2 -2 -2
4 4 4 4 4 4 3 3 4 4 4 3 2 2 3 3 2 2 2 1 1 1 1 1 0 0 -0 -1 -1 -1 -1 -2 -2 -2 -2 -3 -3 -3 -3 -4 -4 -4 -4 -4 -4 -3 -1 -1 -1 -2 -2 -2
4 4 4 4 4 4 3 3 3 4 4 3 3 3 3 3 2 2 2 1 1 1 1 0 0 -0 -1 -1 -2 -2 -2 -2 -3 -3 -3 -4 -4 -4 -4 -4 -4 -4 -4 -4 -4 -3 -2 -1 -1 -1 -1 -2
5 4 4 4 4 4 3 3 3 3 4 4 3 3 3 3 2 2 2 1 1 1 1 0 -0 -1 -1 -2 -2 -2 -3 -3 -4 -4 -4 -4 -4 -5 -5 -6 -5 -5 -4 -4 -4 -4 -3 -2 -1 -2 -2 -2
5 5 5 4 4 4 3 3 3 3 4 4 4 4 3 3 2 2 2 1 1 1 0 -0 -1 -1 -2 -2 -3 -3 -3 -4 -4 -4 -4 -5 -5 -5 -5 -6 -5 -5 -4 -4 -5 -5 -5 -4 -3 -4 -4 -3
5 5 5 4 4 4 3 3 3 3 4 4 4 4 3 3 2 2 1 1 1 1 0 -1 -1 -2 -2 -2 -3 -3 -4 -4 -4 -5 -5 -5 -5 -5 -5 -5 -5 -5 -4 -4 -5 -4 -5 -5 -4 -5 -4 -4
Height
871 869 868 866 865 864 862 861 859 857 855 854 852 851 849 848 846 845 844 843 842 840 839 838 836 834 834 833 831 829 827 826 824 822 820 818 816 814 812 810 808 806 803 801 799 796 795 793 791 790 788 787
871 869 868 867 865 864 862 861 859 857 856 854 853 851 849 848 847 845 844 843 842 841 839 838 836 834 834 833 831 829 828 826 825 823 821 819 816 814 812 810 807 805 803 801 799 796 794 792 791 790 788 787
870 869 868 866 865 864 862 860 859 857 856 854 853 851 850 848 847 846 845 844 842 841 839 838 836 835 833 833 832 830 828 826 825 823 822 819 816 814 812 809 807 804 802 800 798 796 794 792 791 789 788 787
870 869 868 866 865 864 862 860 859 857 856 855 853 852 850 849 848 846 845 844 843 841 840 838 836 835 834 833 832 830 829 827 825 824 822 819 816 814 812 810 807 804 803 800 798 796 795 792 791 789 788 787
871 869 868 867 865 864 862 861 859 858 857 855 854 852 851 849 848 847 845 844 843 841 840 838 837 835 834 833 831 830 828 827 826 824 822 819 817 814 812 810 807 805 803 801 798 797 795 793 791 789 788 787
871 870 869 867 866 864 863 862 860 859 858 856 855 853 852 850 848 847 846 844 843 842 840 839 837 836 834 833 831 830 828 827 826 824 822 820 817 815 813 810 807 805 803 802 799 797 796 794 792 790 789 787
872 870 869 867 866 865 864 862 861 860 858 857 855 854 852 851 849 848 846 845 844 842 841 839 838 836 835 833 831 830 829 827 826 824 822 820 818 816 813 811 808 806 804 802 800 798 796 795 794 792 790 789
872 871 869 868 867 866 865 863 862 860 859 857 856 854 853 851 850 849 847 846 844 843 841 839 838 836 835 833 832 830 829 827 826 824 823 821 819 816 814 812 810 808 805 803 801 799 797 796 795 793 792 790
872 871 870 869 867 866 865 864 862 861 859 858 856 855 853 852 851 849 848 846 844 843 841 839 838 836 835 833 832 830 828 827 826 824 823 821 819 817 815 813 811 809 807 805 802 801 799 798 796 794 793 792
873 872 870 869 868 867 865 864 863 861 860 858 857 855 854 852 851 849 848 846 845 843 841 840 838 836 835 834 832 831 829 827 826 825 824 822 820 819 816 815 813 811 809 806 804 802 801 799 798 796 795 793
874 872 871 870 869 867 866 864 863 862 860 859 858 856 855 853 851 850 848 846 845 843 842 840 838 837 836 834 833 832 830 828 827 826 825 823 822 820 818 816 814 812 810 808 806 804 802 801 799 798 796 795
874 873 872 871 870 868 867 865 864 862 861 860 859 857 855 854 852 850 849 847 845 844 842 841 839 837 836 835 834 832 831 830 828 827 826 824 823 821 819 817 816 814 812 810 808 806 804 802 801 800 798 797
875 874 873 872 870 869 868 866 865 863 862 861 859 857 856 854 853 851 849 848 846 845 843 841 839 837 836 835 834 833 832 831 829 828 827 825 824 822 820 819 817 815 813 811 809 807 806 804 803 801 800 799
876 875 874 872 871 870 869 867 866 864 863 861 860 858 856 855 853 852 850 849 847 846 844 842 840 838 837 835 834 833 832 831 830 829 828 826 825 823 822 820 818 816 815 813 811 809 807 806 805 803 802 801
877 876 874 873 872 871 870 868 867 865 864 862 861 859 858 857 855 853 852 850 848 847 845 843 841 840 838 836 835 834 833 832 831 830 828 827 826 824 823 821 819 818 816 814 813 811 809 808 807 805 804 802
878 877 875 874 873 872 871 869 868 866 865 863 862 860 859 857 856 855 853 851 849 848 846 844 843 841 839 837 835 834 834 833 831 830 829 828 826 825 824 822 820 819 817 815 814 813 811 810 808 807 806 804
879 877 877 875 874 873 872 871 869 867 865 864 863 861 860 858 857 855 854 852 850 849 847 845 844 842 840 838 836 835 834 833 832 830 829 828 826 825 823 822 821 819 818 817 815 814 813 811 810 809 807 806
880 878 877 876 875 874 873 871 870 868 866 865 864 862 861 859 858 856 854 853 851 850 848 846 844 843 841 839 837 836 834 833 832 831 829 828 826 825 824 822 821 820 819 818 816 815 814 813 812 810 809 807
880 879 878 877 876 875 874 872 871 869 867 866 864 863 862 860 858 857 855 854 852 850 849 847 845 843 842 840 839 837 835 833 832 831 830 829 827 825 824 823 821 820 820 819 818 816 815 814 813 812 810 809
881 880 879 878 877 876 875 873 872 870 868 867 865 864 863 861 859 858 856 854 853 851 849 848 846 844 843 841 840 838 836 834 832 831 830 829 828 826 824 823 822 821 820 820 819 818 816 815 814 813 812 810
881 880 879 878 878 876 875 874 872 871 869 868 866 865 863 862 860 858 857 855 854 852 850 848 847 845 844 842 840 839 837 835 833 831 830 830 829 827 825 824 823 822 821 821 820 819 817 816 815 814 813 811
880 880 879 878 878 877 876 875 873 871 870 868 867 865 864 862 861 859 858 856 854 853 851 849 848 846 844 843 841 839 838 836 834 832 831 830 829 828 827 825 824 823 822 821 820 819 818 817 816 815 814 813
880 879 879 878 877 877 876 875 874 872 871 869 867 866 864 863 861 859 858 857 855 853 852 850 848 847 845 843 842 840 838 836 835 833 831 830 829 828 828 826 825 824 823 822 821 820 818 817 816 816 815 814
880 879 878 878 877 876 875 874 873 872 871 869 867 866 864 863 862 860 859 857 856 854 852 851 849 848 846 844 842 840 839 837 835 834 832 830 829 828 828 827 826 824 823 822 821 820 819 818 817 816 815 814
880 879 878 878 877 876 875 874 873 872 871 869 867 866 865 863 862 861 859 858 856 854 853 851 850 848 846 845 843 841 840 838 837 835 833 832 830 829 828 827 826 825 823 823 821 820 819 818 817 816 815 815
879 879 878 877 877 876 875 874 873 872 871 869 868 866 865 864 862 861 859 858 856 855 853 852 850 848 847 845 844 843 841 840 838 836 834 833 831 830 829 827 826 825 824 824 823 821 819 817 816 816 815 815
879 879 878 877 877 876 875 874 872 872 870 869 868 866 865 864 863 861 860 858 857 855 854 852 851 849 848 846 844 843 842 840 839 837 835 833 832 831 830 829 828 826 825 825 823 822 820 818 817 816 815 815
879 878 878 877 876 875 875 874 872 871 870 869 868 866 865 864 863 861 860 859 857 856 854 853 851 850 849 847 845 844 842 841 839 838 836 835 833 832 830 830 829 828 827 825 824 822 821 819 818 817 816 815
878 878 877 876 876 875 874 873 872 872 870 870 868 867 865 864 862 861 860 859 857 856 855 853 852 851 849 848 846 845 843 842 840 839 838 836 835 833 832 831 830 829 828 827 825 825 823 821 820 820 818 817
878 877 877 876 875 874 874 873 872 871 870 869 868 866 865 864 863 862 860 859 858 856 855 854 852 851 850 849 847 846 844 843 841 840 839 837 836 835 833 832 831 830 829 828 827 826 825 824 823 822 820 818
877 877 876 875 875 874 873 873 871 870 870 868 867 866 865 864 863 862 861 859 858 857 855 854 853 852 850 849 848 846 845 844 842 841 840 838 837 836 835 833 832 830 829 828 828 827 826 825 825 823 822 820
Wind_Speed
17 18 19 19 20 20 20 21 21 22 22 22 21 21 20 19 17 16 17 16 16 16 17 19 20 20 20 20 20 21 21 21 22 23 23 22 22 21 21 20 18 18 19 22 21 18 16 15 14 11 8 8
18 18 19 19 19 19 20 20 21 21 20 20 20 19 19 18 17 16 16 15 15 15 16 18 19 20 19 20 20 20 21 21 22 23 23 22 21 21 20 18 17 17 18 20 23 18 13 11 9 8 6 4
19 19 19 19 19 19 19 20 20 20 20 19 19 19 19 18 17 16 16 16 16 16 16 17 18 19 19 19 20 20 20 21 22 22 22 22 21 22 21 18 16 17 16 15 18 17 11 7 6 6 6 5
19 19 19 19 19 19 20 20 21 20 20 20 20 19 19 18 18 18 18 18 18 17 16 16 17 19 19 18 19 19 19 20 21 20 20 21 22 22 21 18 16 17 17 14 14 15 11 7 6 5 6 7
18 18 18 18 19 19 20 20 20 20 20 21 21 20 19 19 19 20 20 20 20 19 18 18 17 17 18 18 17 17 17 18 19 19 20 21 22 22 22 19 16 16 17 16 13 13 11 8 7 7 8 9
17 17 18 18 18 19 19 19 20 20 20 21 21 21 20 20 20 21 21 21 21 21 20 19 18 17 18 17 16 16 16 17 18 20 21 21 21 22 22 21 18 16 15 15 14 12 11 10 10 10 9 11
17 17 17 17 18 19 19 20 20 21 21 21 22 21 21 20 20 20 20 20 20 20 19 19 19 17 17 17 17 17 16 16 16 18 20 20 21 20 21 21 21 18 15 15 15 14 13 12 12 11 10 12
17 16 17 17 18 19 19 21 21 22 22 22 22 22 22 21 21 20 20 20 19 19 19 20 19 18 17 17 17 16 16 17 17 19 19 18 18 19 20 21 21 18 16 16 15 14 14 14 13 13 12 13
16 17 17 18 19 19 20 21 22 22 23 23 24 23 23 23 22 22 21 21 21 21 21 21 20 20 19 18 17 16 17 18 19 20 19 18 18 19 19 19 19 18 17 16 15 15 15 15 14 14 14 13
16 17 19 20 20 20 21 22 22 23 23 24 24 25 25 24 24 23 23 23 23 23 23 22 22 21 20 20 18 17 18 18 19 20 19 19 19 19 19 18 18 17 16 16 16 15 15 15 15 16 16 15
15 18 19 20 21 21 22 23 23 24 24 24 25 25 26 26 25 25 25 24 24 24 24 23 23 21 18 18 19 18 19 18 18 19 19 20 19 19 19 18 17 16 16 16 15 15 16 16 16 16 17 16
15 17 18 20 21 21 22 23 24 24 24 24 24 25 25 25 25 25 25 25 25 25 24 24 25 22 17 16 17 18 18 19 18 18 19 19 19 19 18 18 17 16 15 15 15 15 15 16 16 17 17 17
15 16 17 19 20 21 22 22 23 23 22 23 24 24 25 25 25 25 25 25 25 25 25 25 25 24 20 16 16 16 17 18 19 18 18 19 19 19 17 17 17 15 14 14 15 15 15 15 16 17 17 18
15 15 17 20 20 21 21 22 21 21 22 23 23 24 24 24 24 25 25 25 25 25 25 25 25 24 22 18 15 15 16 16 17 18 17 17 18 18 17 16 16 15 13 14 15 15 16 16 16 17 17 19
15 16 18 20 20 20 20 21 20 20 21 22 23 23 23 24 24 24 24 24 25 25 25 24 24 23 23 21 17 15 15 15 16 16 16 16 16 17 17 15 14 14 13 13 14 15 16 16 16 17 18 19
15 16 18 19 20 19 19 19 19 19 21 22 22 23 23 24 24 24 24 25 25 25 24 24 23 22 22 22 20 17 14 13 14 14 14 14 15 16 17 14 13 13 12 12 13 14 16 16 17 18 18 20
15 16 17 18 19 19 18 18 19 20 21 22 22 23 23 24 24 25 25 25 25 24 24 24 23 22 22 21 20 19 16 13 13 14 13 13 13 14 16 15 12 12 11 11 12 13 15 15 16 17 18 20
14 15 16 17 18 18 17 17 19 20 21 22 22 22 23 23 23 24 24 24 24 24 23 23 23 22 22 20 19 19 18 15 13 13 15 14 14 13 14 13 10 10 11 10 11 13 14 14 15 16 18 19
13 14 15 17 18 18 17 18 19 19 20 20 21 21 21 22 22 22 23 23 23 23 23 23 22 22 21 20 18 18 17 16 14 13 13 15 15 13 13 12 8 9 11 10 11 13 13 14 13 15 17 18
12 13 15 16 18 18 17 18 19 19 19 19 20 20 20 21 21 21 22 22 22 23 23 23 22 21 20 19 18 17 16 16 16 14 12 12 14 13 13 13 8 8 9 9 10 11 13 13 13 15 17 18
11 13 14 16 18 18 18 18 18 19 18 18 19 19 20 20 20 20 21 21 22 22 22 22 22 21 20 19 18 17 17 16 16 15 13 11 11 11 13 13 9 7 8 9 9 10 12 12 12 14 16 18
11 12 14 15 17 17 17 17 18 18 17 18 19 19 19 19 19 20 20 21 21 21 21 21 21 21 20 19 18 17 17 16 15 14 13 12 10 9 11 13 10 6 6 7 8 9 10 11 12 14 15 16
11 12 13 14 15 16 16 16 17 18 17 17 17 17 18 18 18 19 20 20 20 20 21 21 21 21 20 20 19 19 18 18 17 16 14 13 11 9 9 12 11 5 2 4 5 7 9 10 11 12 13 14
11 12 13 13 14 14 15 16 17 18 17 17 16 16 17 17 18 18 19 19 19 20 21 21 21 21 21 20 20 20 19 19 19 18 16 13 12 11 10 12 12 6 1 0 1 2 4 6 8 10 11 13
10 11 12 13 14 15 15 15 16 17 17 17 16 15 16 17 17 17 18 19 19 20 21 21 21 21 21 21 20 19 19 18 17 17 16 13 11 10 12 13 14 10 3 2 2 3 3 2 3 7 9 11
10 10 11 13 14 15 15 14 15 17 17 17 16 15 16 16 17 17 17 18 19 20 20 21 21 21 22 21 20 19 17 17 16 16 16 15 13 10 10 10 13 14 7 4 6 5 4 4 2 1 4 9
10 11 12 14 15 15 15 14 15 17 18 17 15 15 15 16 16 17 17 18 18 19 20 21 21 22 22 21 21 19 19 18 17 18 17 17 16 13 11 8 9 13 11 10 9 5 3 2 2 2 1 6
11 12 12 13 14 14 14 13 14 15 16 16 14 14 15 15 16 17 17 17 18 19 20 21 21 21 21 20 20 20 19 19 19 19 18 17 17 15 14 12 10 10 10 12 9 3 3 2 2 1 2 6
12 12 12 13 14 14 14 14 14 14 15 14 14 14 14 15 16 16 17 17 17 18 19 19 20 20 20 19 19 19 18 18 17 17 17 17 17 15 14 13 12 9 8 10 9 4 2 2 2 1 5 8
12 12 12 13 13 14 14 15 14 13 14 15 15 14 15 15 15 15 16 16 17 17 18 18 18 18 18 18 18 18 17 17 16 16 17 16 16 15 13 12 12 11 8 7 7 5 3 1 1 2 6 6
13 12 12 13 13 13 14 14 14 13 14 15 15 15 15 15 15 15 15 16 16 17 17 17 17 17 17 17 17 16 16 15 15 15 15 15 15 14 13 11 11 13 11 8 7 5 2 1 0 2 3 2
Wind_Direction
354 353 351 351 350 349 348 349 350 350 350 350 351 350 350 350 349 348 347 347 349 351 354 354 352 353 353 348 350 348 349 352 351 351 350 347 345 345 344 341 345 352 351 345 340 335 331 327 326 326 313 303
357 354 353 353 351 351 351 352 354 356 358 358 359 358 357 358 356 354 352 353 353 352 354 354 351 353 353 348 349 348 347 350 351 351 349 349 349 348 345 341 342 345 345 341 335 335 339 334 335 341 339 350
357 357 356 356 355 356 357 358 0 3 5 5 4 4 5 4 3 1 359 359 356 354 355 355 355 353 351 350 349 347 347 348 346 345 348 354 355 351 345 341 345 345 343 345 336 336 348 354 11 12 0 28
357 359 359 359 360 1 2 2 4 5 7 7 6 6 8 8 6 6 3 2 1 359 357 358 360 354 351 354 353 352 351 352 350 349 354 360 359 355 351 346 353 357 349 351 350 344 349 5 18 29 42 55
359 2 1 3 4 5 6 6 8 7 8 9 9 8 6 7 6 6 3 2 2 0 360 1 1 355 352 354 355 354 353 356 358 357 0 1 360 1 359 351 356 2 353 352 2 360 356 6 26 45 62 68
3 3 4 7 9 11 11 11 12 11 12 12 12 11 7 6 5 4 3 0 359 358 358 358 358 358 356 353 353 353 352 355 358 359 0 360 1 4 2 359 2 3 358 0 8 15 13 14 35 50 57 64
6 6 10 12 14 15 14 15 15 13 14 13 12 11 9 7 5 3 1 359 357 354 354 355 355 358 357 356 358 357 356 355 357 360 356 357 3 4 4 5 9 6 7 16 13 16 26 26 33 43 49 56
8 13 15 16 17 17 17 18 16 16 15 14 12 11 11 10 8 5 2 0 357 355 355 356 356 357 358 359 1 2 4 360 2 4 355 357 4 6 11 10 9 10 14 24 23 22 29 31 32 37 42 46
14 18 19 19 20 19 20 20 17 17 15 14 13 12 13 12 11 9 7 5 2 1 0 359 358 359 0 2 4 6 10 8 8 8 3 6 10 12 18 16 12 12 17 24 29 32 33 33 34 36 38 39
20 22 21 21 20 19 20 20 18 18 16 14 14 12 12 12 11 10 9 8 7 5 4 1 358 358 1 2 4 7 11 12 13 12 11 14 15 16 18 19 19 17 21 27 30 36 39 38 38 39 39 38
22 24 23 22 20 19 19 18 18 17 17 15 14 13 12 11 10 10 10 9 8 7 6 3 358 358 1 1 5 9 11 11 13 14 13 14 15 17 17 17 19 18 24 31 34 36 40 42 41 42 42 41
22 24 22 22 20 19 18 17 17 17 17 16 15 14 13 12 11 10 10 9 9 8 7 4 1 1 2 1 3 7 10 6 8 11 12 14 13 13 15 16 14 16 23 32 39 39 40 44 45 45 45 45
21 23 22 23 21 20 19 17 17 16 16 16 16 15 14 13 11 11 11 10 9 8 8 6 4 4 5 4 360 0 4 1 1 5 7 11 12 9 11 15 14 14 21 29 39 42 42 44 47 48 47 47
17 19 20 21 20 19 18 17 16 14 14 15 14 14 14 13 12 11 10 10 9 8 9 8 6 6 7 6 3 4 4 359 357 360 1 6 12 9 8 13 16 16 21 30 38 42 45 46 50 52 51 50
11 13 16 18 15 15 16 15 13 12 13 13 13 13 13 12 12 11 10 10 9 9 8 8 7 7 7 7 8 8 4 359 357 355 356 3 10 10 9 12 18 21 24 36 41 45 50 52 54 55 54 53
5 7 11 12 10 10 11 11 10 11 13 14 14 13 12 11 11 11 10 9 9 9 8 7 8 7 7 7 8 6 1 357 353 353 351 353 358 0 4 10 20 27 29 42 49 54 58 57 57 56 53 52
358 1 5 6 6 6 6 7 8 12 15 14 13 12 11 11 10 10 9 8 8 8 8 7 8 8 8 7 5 4 4 360 353 354 353 346 344 345 354 4 16 29 35 47 56 63 65 61 59 56 52 48
349 353 357 359 1 2 2 5 8 12 15 13 13 12 10 10 9 9 8 8 7 7 7 7 7 8 9 8 4 3 4 5 358 356 357 354 352 349 355 4 15 32 39 50 61 67 68 63 58 53 50 46
343 346 350 352 356 360 360 3 7 12 14 12 12 11 10 9 9 9 8 8 7 7 7 7 8 9 10 9 7 5 4 3 2 2 2 0 2 2 7 12 25 45 43 50 66 71 70 64 56 51 48 43
341 341 344 346 350 357 358 358 4 10 12 11 11 10 10 9 8 9 8 8 7 7 7 7 9 9 9 9 9 10 7 3 3 5 7 5 3 3 11 17 29 52 48 54 68 73 73 66 56 50 45 42
338 336 337 340 345 351 353 354 1 8 9 8 10 9 8 7 8 9 8 8 8 7 7 8 9 9 9 9 10 11 10 10 7 4 4 9 7 3 11 18 26 50 53 60 70 71 72 66 57 50 45 41
332 329 331 335 340 346 348 352 359 3 4 6 7 5 5 6 7 8 8 8 7 7 8 8 9 8 9 9 11 12 11 13 13 9 4 7 14 10 13 19 19 33 49 61 74 73 70 65 58 52 47 42
323 322 325 329 336 340 343 350 356 357 358 2 3 2 4 6 5 6 6 6 5 6 7 8 8 8 9 9 11 12 11 11 12 14 10 6 13 16 20 21 13 8 36 65 77 75 70 64 59 54 48 43
315 314 318 324 330 333 340 350 353 351 352 356 359 1 3 4 4 4 4 4 5 6 6 6 6 7 9 10 12 12 11 10 10 13 14 10 9 12 21 22 16 6 319 306 37 57 58 57 58 54 48 41
307 309 314 320 324 328 338 347 348 345 345 349 354 359 1 1 2 2 2 3 4 5 5 5 5 6 9 10 12 12 12 12 11 12 15 18 15 14 20 20 16 12 338 278 306 295 303 323 51 50 42 38
304 306 310 314 319 324 331 338 342 340 340 344 348 354 359 360 360 359 360 1 2 3 3 4 6 6 8 9 10 11 12 11 13 13 14 19 24 26 27 25 17 15 16 347 323 297 289 275 252 23 39 31
305 303 307 309 313 318 321 327 335 336 337 340 341 349 356 357 358 357 357 360 1 1 3 5 6 6 6 6 7 7 9 10 12 14 15 17 21 25 28 32 25 22 25 7 340 303 281 295 285 242 76 21
309 305 307 307 308 311 313 317 326 331 334 335 337 346 351 353 357 356 355 357 358 0 2 4 4 4 5 6 6 7 8 10 11 12 15 16 17 20 20 20 23 27 27 20 13 334 285 316 336 279 357 349
312 309 308 307 307 308 308 311 318 324 329 331 336 343 346 350 355 354 353 354 356 358 360 1 2 2 4 5 6 8 9 10 11 11 13 15 15 18 18 12 12 19 24 30 35 28 344 327 330 332 330 330
314 309 307 305 304 304 305 308 313 319 327 333 336 340 344 347 350 351 351 352 353 355 356 358 359 1 3 5 6 9 10 9 10 10 10 12 13 15 16 12 12 16 21 36 39 44 75 88 280 305 320 325
314 307 302 300 299 300 301 303 308 317 326 331 333 335 340 342 345 347 348 349 350 351 353 355 356 359 1 3 4 6 8 8 8 9 8 7 9 11 11 11 15 15 16 25 27 39 83 141 102 4 339 328